Home > Weather > Key West > Past weeks

Flag for USA Past Weather in Key West, Florida, USA — Yesterday and Last 2 Weeks

Now
89 °F

Sunny.


Feels Like: 105 °F
Forecast: 82 / 89 °F
Wind: 13 mph from East

Location: Key West International Airport

Current Time: Jul 27, 2016 at 3:14:38 PM

Latest Report: Jul 27, 2016 at 2:53 PM


Visibility: 10 mi

Pressure: 30.02 "Hg

Humidity: 72%

Dew Point: 79 °F

Location of Key WestLocation

Past Weather in Key West — Graph

°F

Key West Temperature Yesterday

Maximum temperature yesterday: 91 °F (at 2:53 PM)
Minimum temperature yesterday: 84 °F (at 3:53 AM)
Average temperature yesterday: 87 °F

High & Low Weather Summary for the Past Weeks

 TemperatureHumidityPressure
High92 °F (Jul 12, 2:53 PM)96% (Jul 16, 4:04 AM)30.13 "Hg (Jul 16, 4:04 AM)
Low77 °F (Jul 16, 4:53 AM)60% (Jul 12, 2:53 PM)29.99 "Hg (Jul 15, 5:53 PM)
Average85 °F78%30.06 "Hg
* Reported Jul 12 12:53 PM — Jul 27 12:53 PM, Key West, Weather by CustomWeather, © 2016

Note: Actual official high and low records may vary slightly from our data, if they occured in-between our weather recording intervals... More about our weather records

Advertising

Key West Weather History for the Previous 24 Hours

Scroll right to see more
 ConditionsComfort  
Time TempWeatherWind HumidityBarometerVisibility
12:53 PM
Wed, Jul 27
87 °FPassing clouds.15 mph75%30.06 "Hg10 mi
11:53 AM86 °FPassing clouds.12 mph77%30.07 "Hg10 mi
10:53 AM85 °FScattered clouds.13 mph80%30.07 "Hg10 mi
9:53 AM83 °FPartly sunny.10 mph85%30.06 "Hg10 mi
8:53 AM80 °FPassing clouds.9 mph94%30.05 "Hg10 mi
7:53 AM78 °FPartly sunny.10 mph93%30.06 "Hg7 mi
6:53 AM78 °FLight rain. Partly cloudy.12 mph93%30.04 "Hg10 mi
5:53 AM77 °FThundershowers. Passing clouds.7 mph94%30.03 "Hg10 mi
4:53 AM84 °FThunderstorms. Partly cloudy.9 mph80%30.01 "Hg10 mi
3:53 AM84 °FThundershowers. Passing clouds.9 mph80%30.01 "Hg10 mi
2:53 AM85 °FPassing clouds.12 mph75%30.01 "Hg10 mi
1:53 AM85 °FClear.13 mph80%30.02 "Hg10 mi
12:53 AM84 °FClear.13 mph80%30.03 "Hg10 mi
11:53 PM
Tue, Jul 26
85 °FClear.12 mph77%30.05 "Hg10 mi
10:53 PM85 °FClear.17 mph75%30.04 "Hg10 mi
9:53 PM85 °FClear.15 mph77%30.03 "Hg10 mi
8:53 PM86 °FSunny.14 mph75%30.02 "Hg10 mi
7:53 PM86 °FPassing clouds.12 mph77%30.02 "Hg10 mi
6:53 PM88 °FPassing clouds.14 mph70%30.01 "Hg10 mi
5:53 PM87 °FSunny.13 mph69%30.00 "Hg10 mi
4:53 PM90 °FPassing clouds.14 mph66%30.00 "Hg10 mi
3:53 PM90 °FSunny.16 mph68%30.02 "Hg10 mi
Weather by CustomWeather, © 2016

See weather overviewHow to use our weather pages